This is the latest recevied weather packets stored in our database for station/object KI7MOQ. If no packets are shown the sender has not sent any weather packets the latest 1 day(s).
| Time | Temp. | Humidity | Pressure | Rain* | Wind** | Luminosity | Snow |
|---|---|---|---|---|---|---|---|
| 1778033444 | 17.22° C | 72% | 1017.7 hPa | 0 mm | 0 m/s | 24 W/m² | - |
| 1778033142 | 17.22° C | 72% | 1017.7 hPa | 0 mm | 0 m/s | 23 W/m² | - |
| 1778032839 | 17.22° C | 72% | 1017.6 hPa | 0 mm | 0 m/s | 24 W/m² | - |
| 1778032537 | 17.22° C | 72% | 1017.6 hPa | 0 mm | 0 m/s | 24 W/m² | - |
| 1778032233 | 17.22° C | 72% | 1017.6 hPa | 0 mm | 0 m/s | 24 W/m² | - |
| 1778031931 | 17.22° C | 71% | 1017.6 hPa | 0 mm | 0 m/s | 30 W/m² | - |
| 1778031626 | 17.22° C | 71% | 1017.6 hPa | 0 mm | 0 m/s | 36 W/m² | - |
| 1778031325 | 17.22° C | 71% | 1017.6 hPa | 0 mm | 0 m/s | 40 W/m² | - |
| 1778031021 | 17.22° C | 71% | 1017.9 hPa | 0 mm | 0 m/s | 35 W/m² | - |
| 1778030717 | 17.22° C | 71% | 1017.7 hPa | 0 mm | 0 m/s | 33 W/m² | - |
| 1778030414 | 17.22° C | 73% | 1017.6 hPa | 0 mm | 0 m/s | 33 W/m² | - |
| 1778030112 | 17.22° C | 73% | 1017.6 hPa | 0 mm | 0 m/s | 34 W/m² | - |
| 1778029808 | 17.22° C | 71% | 1017.7 hPa | 0 mm | 0 m/s | 34 W/m² | - |
| 1778029507 | 17.22° C | 72% | 1017.7 hPa | 0 mm | 0 m/s | 35 W/m² | - |
| 1778029202 | 17.22° C | 72% | 1017.9 hPa | 0 mm | 0.45 m/s, 100° | 35 W/m² | - |
| 1778028900 | 17.22° C | 72% | 1017.8 hPa | 0 mm | 0 m/s | 34 W/m² | - |
| 1778028595 | 17.22° C | 72% | 1017.7 hPa | 0 mm | 0 m/s | 35 W/m² | - |
| 1778028294 | 17.22° C | 72% | 1017.8 hPa | 0 mm | 0 m/s | 38 W/m² | - |
| 1778027989 | 16.67° C | 73% | 1017.8 hPa | 0 mm | 0 m/s | 37 W/m² | - |
| 1778027686 | 16.67° C | 72% | 1017.7 hPa | 0 mm | 0 m/s | 37 W/m² | - |
| 1778027382 | 17.22° C | 72% | 1017.9 hPa | 0 mm | 0.89 m/s, 98° | 37 W/m² | - |
| 1778027079 | 17.22° C | 71% | 1017.8 hPa | 0 mm | 0 m/s | 34 W/m² | - |
| 1778026774 | 17.22° C | 72% | 1017.7 hPa | 0 mm | 0 m/s | 33 W/m² | - |
| 1778026471 | 17.22° C | 72% | 1018 hPa | 0 mm | 0 m/s | 38 W/m² | - |
| 1778026169 | 16.67° C | 73% | 1017.9 hPa | 0 mm | 0 m/s | 40 W/m² | - |
* Rain latest hour (hover to see other rain measurements)
** Current wind speed in m/s (hover to see current wind gust speed)